sat.trackr.live / text

‹ back to catalog

STARLINK-5588

NORAD 55375 · 2023-013AW

PAYLOAD ACTIVE UNKNOWN

§ Identity

Operator
Country
US
Launch date
2023-01-26
Launch site
AFETR
Launch vehicle
Mass (kg)
RCS (m²)

Purposes: comms

External: N2YO · Heavens-Above · Gunter

§ Orbital elements

Epoch: 2026-05-24T23:54:12.257280Z

Period
94.27 min
Inclination
43.0019°
Eccentricity
0.0001583
Mean motion
15.27577041 rev/d
Perigee alt
482.0 km
Apogee alt
484.1 km
Semi-major
6,861.2 km
B*
2.1698e-7
RAAN
250.5534°
Arg perigee
263.7283°
Mean anomaly
96.3388°
Rev number
18,313

§ Raw data

STARLINK-55881 55375U 23013AW  26144.99597520 -.00000256  00000+0  21698-6 0  99922 55375  43.0019 250.5534 0001583 263.7283  96.3388 15.27577041183138

JSON: /api/v1/satellites/55375 · /tle

For live sub-satellite position, see the globe view (requires WebGL).

§ Visibility from observer

Set your observer location to see the next 7 days of passes ≥ 10°. The values pass through the URL so the page stays shareable.

No JS? Fill the form by hand. The geolocation button needs JavaScript.